Weather History for Phnom Penh, Cambodia

Change the Weather History Date:

Tuesday, November 12, 2013

  Actual Average Record
Temperature  
Mean Temperature 84 °F -  
Max Temperature 91 °F 84 °F 91 °F (1999)
Min Temperature 78 °F 74 °F 73 °F (2001)
Cooling Degree Days 20    
Growing Degree Days 34 (Base 50)    
Moisture  
Dew Point 74 °F    
Average Humidity 67    
Maximum Humidity 89    
Minimum Humidity 55    
Precipitation  
Precipitation 0.00 in - - ()
Sea Level Pressure  
Sea Level Pressure 29.75 in    
Wind  
Wind Speed 4 mph ()    
Max Wind Speed 14 mph    
Max Gust Speed -    
Visibility 6.0 miles    
Events      
Averages and records for this station are not official NWS values.
T = Trace of Precipitation, MM = Missing Value Source: Averaged Metar Reports

Daily Weather History Graph

Daily Weather History Graph

Search for Another Location

Airport:

Trip Planner

Search our weather history database for the weather conditions in past years. The results will help you decide how hot, cold, wet, or windy it might be!

Date:

Astronomy

Nov. 12, 2013 Rise Set
Actual Time 5:56 AM ICT 5:33 PM ICT
Civil Twilight 5:33 AM ICT 5:55 PM ICT
Nautical Twilight 5:08 AM ICT 6:20 PM ICT
Astronomical Twilight 4:43 AM ICT 6:46 PM ICT
Moon 1:38 PM ICT (11/12) 1:08 AM ICT (11/12)
Length of Visible Light 12h 21m
Length of Day
11h 37m
Waxing Gibbous, 71% of the Moon is Illuminated
Nov 12
Waxing Gibbous
Nov 17
Full
Nov 26
Last Quarter
Dec 3
New
Dec 9
First Quarter

Hourly Weather History & Observations

Time (ICT) Temp. Heat Index Dew Point Humidity Pressure Visibility Wind Dir Wind Speed Gust Speed Precip Events Conditions
12:00 AM 84.2 °F 92.3 °F 75.2 °F 74% 29.74 in 6.2 mi South 3.5 mph - N/A   Scattered Clouds
12:30 AM 84.2 °F 92.3 °F 75.2 °F 74% 29.74 in 6.2 mi South 4.6 mph - N/A   Scattered Clouds
1:00 AM 84.2 °F 94.1 °F 77.0 °F 79% 29.74 in 6.2 mi South 4.6 mph - N/A   Scattered Clouds
6:00 AM 78.8 °F - 75.2 °F 89% 29.77 in 6.2 mi ENE 2.3 mph - N/A   Scattered Clouds
6:30 AM 80.6 °F 86.2 °F 75.2 °F 84% 29.77 in 6.2 mi East 3.5 mph - N/A   Scattered Clouds
7:00 AM 82.4 °F 89.5 °F 75.2 °F 79% 29.77 in 6.2 mi South 1.2 mph - N/A   Partly Cloudy
7:30 AM 84.2 °F 92.3 °F 75.2 °F 74% 29.77 in 6.2 mi SSE 2.3 mph - N/A   Partly Cloudy
8:00 AM 84.2 °F 92.3 °F 75.2 °F 74% 29.80 in 6.2 mi SSE 4.6 mph - N/A   Partly Cloudy
8:30 AM 84.2 °F 92.3 °F 75.2 °F 74% 29.80 in 6.2 mi SSW 3.5 mph - N/A   Scattered Clouds
9:00 AM 86.0 °F 93.4 °F 73.4 °F 66% 29.80 in 6.2 mi South 8.1 mph - N/A   Scattered Clouds
9:30 AM 86.0 °F 93.4 °F 73.4 °F 66% 29.80 in 6.2 mi SSE 8.1 mph - N/A   Scattered Clouds
10:00 AM 87.8 °F 95.6 °F 73.4 °F 62% 29.80 in 6.2 mi SSE 6.9 mph - N/A   Scattered Clouds
10:30 AM 89.6 °F 98.2 °F 73.4 °F 59% 29.80 in 6.2 mi South 8.1 mph - N/A   Scattered Clouds
11:00 AM 87.8 °F 95.6 °F 73.4 °F 62% 29.77 in 6.2 mi SSE 8.1 mph - N/A   Scattered Clouds
11:30 AM 87.8 °F 95.6 °F 73.4 °F 62% 29.77 in 6.2 mi SSE 8.1 mph - N/A   Scattered Clouds
12:00 PM 87.8 °F 95.6 °F 73.4 °F 62% 29.77 in 6.2 mi SSE 5.8 mph - N/A   Scattered Clouds
12:30 PM 89.6 °F 98.2 °F 73.4 °F 59% 29.74 in 6.2 mi South 13.8 mph - N/A   Scattered Clouds
1:00 PM 89.6 °F 98.2 °F 73.4 °F 59% 29.74 in 6.2 mi South 6.9 mph - N/A   Scattered Clouds
1:30 PM 89.6 °F 98.2 °F 73.4 °F 59% 29.71 in 6.2 mi South 10.4 mph - N/A   Scattered Clouds
2:00 PM 89.6 °F 98.2 °F 73.4 °F 59% 29.71 in 6.2 mi SSW 5.8 mph - N/A   Scattered Clouds
3:00 PM 91.4 °F 100.1 °F 73.4 °F 55% 29.68 in 6.2 mi SSE 2.3 mph - N/A   Scattered Clouds
3:30 PM 91.4 °F 100.1 °F 73.4 °F 55% 29.68 in 6.2 mi SSE 8.1 mph - N/A   Partly Cloudy
4:00 PM 91.4 °F 100.1 °F 73.4 °F 55% 29.68 in 6.2 mi SSW 3.5 mph - N/A   Partly Cloudy
4:30 PM 89.6 °F 98.2 °F 73.4 °F 59% 29.68 in 6.2 mi South 5.8 mph - N/A   Partly Cloudy
5:00 PM 89.6 °F 98.2 °F 73.4 °F 59% 29.68 in 6.2 mi South 3.5 mph - N/A   Partly Cloudy
5:30 PM 87.8 °F 95.6 °F 73.4 °F 62% 29.71 in 6.2 mi South 4.6 mph - N/A   Partly Cloudy
6:00 PM 87.8 °F 95.6 °F 73.4 °F 62% 29.71 in 6.2 mi South 4.6 mph - N/A   Partly Cloudy
6:30 PM 87.8 °F 95.6 °F 73.4 °F 62% 29.71 in 5.6 mi South 2.3 mph - N/A   Partly Cloudy
7:00 PM 87.8 °F 97.6 °F 75.2 °F 66% 29.71 in 5.6 mi SSE 2.3 mph - N/A   Partly Cloudy
7:30 PM 86.0 °F 93.4 °F 73.4 °F 66% 29.74 in 5.6 mi SE 3.5 mph - N/A   Partly Cloudy
8:00 PM 86.0 °F 95.1 °F 75.2 °F 70% 29.74 in 5.6 mi SSE 2.3 mph - N/A   Partly Cloudy
8:30 PM 86.0 °F 96.9 °F 77.0 °F 74% 29.77 in 5.6 mi South 2.3 mph - N/A   Partly Cloudy
9:00 PM 86.0 °F 96.9 °F 77.0 °F 74% 29.77 in 5.6 mi South 3.5 mph - N/A   Partly Cloudy
9:30 PM 86.0 °F 96.9 °F 77.0 °F 74% 29.77 in 5.6 mi SSW 3.5 mph - N/A   Partly Cloudy
11:00 PM 86.0 °F 96.9 °F 77.0 °F 74% 29.77 in 5.6 mi WSW 3.5 mph - N/A   Scattered Clouds
11:30 PM 86.0 °F 96.9 °F 77.0 °F 74% 29.77 in 5.6 mi WNW 4.6 mph - N/A   Scattered Clouds